Find Starlink 31406

NORAD ID: 59017 Int'l Des: 2024-036 Owner: SPXS Country: US Constellation: starlink operational
LEOCIRCULAR

Live Position

Loading 3D Globe...

About Starlink 31406

Description loading...

Upcoming Passes

Passes for default location (London). Set your location on the main map for personalized predictions.

Altitude History

Loading altitude history...

Two-Line Element Set

1 59017U 24036V 26126.56043668 -.00000092 00000-0 83993-5 0 9991
2 59017 53.1614 155.8292 0001142 76.7545 283.3585 15.34384624124379
Epoch: May 6, 2026 • Age: 8 hours

Current Status

Altitude 464.2 km
Velocity 7.64 km/s
Sub-Earth Point -4.36°S, 32.34°W
Launch Date Feb 23, 2024
Age 2.1 years
Type internet

Technical Details

Classification Payload
Mass 730.00 kg
Dry Mass 700.00 kg
Total Mass 730.00 kg
Length 0.30 m
Diameter 4.10 m
Span 29.00 m
Shape Box + pan
Manufacturer SPXS
Bus Type Starlink V2M
Phase Status In Orbit
Owner/State SPXS/US

Most Searched